Weather in Znob-Novhorodske

Ukraine / Sumi District     52°15′51″N   33°36′05″E
temp.,
°C
wind,
m/s
gust,
m/s
humid.,
%
clouds,
%
prec.,
mm/h
press.,
hPa
HPBL,
m
27 october, wed
wed2700:00+3ssw51469100 0.0 1025314
03:00+2ssw5137789 0.0 1024300
06:00+2ssw5138436 0.0 1023298
09:00+3ssw614835 0.0 1022426
12:00+8wsw696391 0.0 1022642
15:00+7wsw5965100 0.0 1021512
18:00+6wsw377590 0.0 1022256
21:00+4wsw369174 0.1 1022109
28 october, thu
thu2800:00+5sw4891100 0.0 1022137
03:00+5sw41193100 0.0 1021255
06:00+7sw61486100 0.3 1018436
09:00+7wsw61388100 0.9 1018506
12:00+8w51294100 1.5 1019461
15:00+9w5119089 2.1 1019473
18:00+10nw51086100 0.0 1020477
21:00+7nw310955 0.1 1022224
29 october, fri
fri2900:00+6n36945 0.0 1024112
03:00+4n22905 0.0 102621
06:00+3nne22905 0.0 102819
09:00+4ene12875 0.0 102949
12:00+9ese22715 0.0 1029382
15:00+10sse11658 0.0 1029558
18:00+7sse11813 0.0 103010
21:00+6sse22880 0.0 103020
30 october, sat
sat3000:00+5s34910 0.0 103156
03:00+4s33915 0.0 103241
06:00+4s35925 0.0 103184
09:00+4s36915 0.0 1032156
12:00+10s46715 0.0 1032438
15:00+11s46645 0.0 1031631
18:00+7s34815 0.0 103165
21:00+6s37885 0.0 1031114
31 october, sun
sun3100:00+5s36895 0.0 1032100
03:00+4s36905 0.0 103288
05:00+4s35895 0.0 103177
08:00+4s36843 0.0 1031136
11:00+10s47610 0.0 1030418
14:00+11s46580 0.0 1028638
17:00+7se34780 0.0 102758
20:00+6sse39830 0.0 1027145